Weather History for KIKV - March, 2014

Change the Weather History Date:

Saturday, March 22, 2014

  Actual Average (KDSM) Record (KDSM)
Temperature  
Mean Temperature 26 °F 42 °F  
Max Temperature 32 °F 52 °F 84 °F (1988)
Min Temperature 21 °F 32 °F 1 °F (1912)
Degree Days  
Heating Degree Days 38 23  
Month to date heating degree days 607  
Since 1 July heating degree days 5438  
Cooling Degree Days 0 0  
Month to date cooling degree days 0  
Year to date cooling degree days 0  
Moisture  
Dew Point 13 °F    
Average Humidity 58    
Maximum Humidity 75    
Minimum Humidity 44    
Precipitation  
Precipitation 0.00 in 0.08 in 1.02 in (2011)
Month to date precipitation 1.53  
Year to date precipitation 3.81  
Snow  
Snow 0.00 in 0.10 in 4.00 in (1903)
Month to date snowfall 4.0  
Since 1 July snowfall 32.3  
Snow Depth -    
Sea Level Pressure  
Sea Level Pressure 30.34 in    
Wind  
Wind Speed 16 mph (NNW)    
Max Wind Speed 20 mph    
Max Gust Speed 28 mph    
Visibility 10 miles    
Events      
T = Trace of Precipitation, MM = Missing Value Source: NWS Daily Summary

Daily Weather History Graph

Daily Weather History Graph

Search for Another Location

Airport or City:

Trip Planner

Search our weather history database for the weather conditions in past years. The results will help you decide how hot, cold, wet, or windy it might be!

Date:

Astronomy

Mar. 22, 2014 Rise Set
Actual Time 7:14 AM CDT 7:28 PM CDT
Civil Twilight 6:46 AM CDT 7:56 PM CDT
Nautical Twilight 6:13 AM CDT 8:29 PM CDT
Astronomical Twilight 5:40 AM CDT 9:02 PM CDT
Moon 12:52 AM CDT (3/22) 10:54 AM CDT (3/22)
Length of Visible Light 13h 10m
Length of Day
12h 14m
Waning Gibbous, 65% of the Moon is Illuminated
Mar 22
Waning Gibbous
Mar 23
Last Quarter
Mar 30
New
Apr 7
First Quarter
Apr 15
Full

Hourly Weather History & Observations

Time (CDT) Temp. Windchill Dew Point Humidity Pressure Visibility Wind Dir Wind Speed Gust Speed Precip Events Conditions
12:15 AM 30.2 °F 19.8 °F 23.0 °F 75% 30.16 in 10.0 mi NNW 13.8 mph 26.5 mph N/A   Mostly Cloudy
12:35 AM 30.2 °F 18.5 °F 23.0 °F 75% 30.17 in 10.0 mi NNW 17.3 mph 23.0 mph N/A   Mostly Cloudy
12:55 AM 30.2 °F 19.8 °F 23.0 °F 75% 30.17 in 10.0 mi NNW 13.8 mph 21.9 mph N/A   Mostly Cloudy
1:15 AM 28.4 °F 17.5 °F 21.2 °F 74% 30.19 in 10.0 mi NNW 13.8 mph 24.2 mph N/A   Mostly Cloudy
1:35 AM 28.4 °F 16.2 °F 19.4 °F 69% 30.19 in 10.0 mi NNW 17.3 mph - N/A   Partly Cloudy
1:55 AM 28.4 °F 16.6 °F 19.4 °F 69% 30.19 in 10.0 mi NNW 16.1 mph - N/A   Clear
2:15 AM 26.6 °F 13.1 °F 17.6 °F 69% 30.21 in 10.0 mi NNW 19.6 mph 26.5 mph N/A   Clear
2:35 AM 26.6 °F 13.8 °F 15.8 °F 64% 30.21 in 10.0 mi NNW 17.3 mph 24.2 mph N/A   Clear
2:55 AM 26.6 °F 15.2 °F 17.6 °F 69% 30.21 in 10.0 mi NNW 13.8 mph - N/A   Clear
3:15 AM 26.6 °F 15.2 °F 17.6 °F 69% 30.20 in 10.0 mi NNW 13.8 mph - N/A   Clear
3:35 AM 24.8 °F 12.9 °F 15.8 °F 69% 30.21 in 10.0 mi NNW 13.8 mph 23.0 mph N/A   Clear
3:55 AM 24.8 °F 14.0 °F 15.8 °F 69% 30.22 in 10.0 mi NNW 11.5 mph - N/A   Clear
4:15 AM 24.8 °F 11.5 °F 15.8 °F 69% 30.23 in 10.0 mi NW 17.3 mph 25.3 mph N/A   Clear
4:35 AM 23.0 °F 9.2 °F 14.0 °F 68% 30.24 in 10.0 mi NNW 17.3 mph - N/A   Clear
4:55 AM 23.0 °F 8.3 °F 14.0 °F 68% 30.24 in 10.0 mi NNW 19.6 mph - N/A   Clear
5:15 AM 23.0 °F 9.6 °F 14.0 °F 68% 30.26 in 10.0 mi NNW 16.1 mph - N/A   Clear
5:35 AM 23.0 °F 9.6 °F 14.0 °F 68% 30.27 in 10.0 mi NNW 16.1 mph 24.2 mph N/A   Clear
5:55 AM 23.0 °F 10.1 °F 12.2 °F 63% 30.27 in 10.0 mi NNW 15.0 mph 23.0 mph N/A   Clear
6:15 AM 21.2 °F 7.8 °F 12.2 °F 68% 30.28 in 10.0 mi NNW 15.0 mph - N/A   Clear
6:35 AM 21.2 °F 7.3 °F 12.2 °F 68% 30.28 in 10.0 mi NNW 16.1 mph 24.2 mph N/A   Clear
6:55 AM 21.2 °F 6.8 °F 12.2 °F 68% 30.28 in 10.0 mi NNW 17.3 mph 26.5 mph N/A   Clear
7:15 AM 21.2 °F 7.3 °F 12.2 °F 68% 30.30 in 10.0 mi NNW 16.1 mph 27.6 mph N/A   Clear
7:35 AM 21.2 °F 6.4 °F 10.4 °F 63% 30.31 in 10.0 mi NNW 18.4 mph 24.2 mph N/A   Clear
7:55 AM 21.2 °F 6.0 °F 10.4 °F 63% 30.31 in 10.0 mi NNW 19.6 mph 26.5 mph N/A   Clear
8:15 AM 21.2 °F 7.3 °F 10.4 °F 63% 30.32 in 10.0 mi NNW 16.1 mph 26.5 mph N/A   Clear
8:35 AM 21.2 °F 7.8 °F 10.4 °F 63% 30.33 in 10.0 mi NNW 15.0 mph - N/A   Clear
8:55 AM 21.2 °F 7.8 °F 10.4 °F 63% 30.34 in 10.0 mi NNW 15.0 mph - N/A   Clear
9:15 AM 23.0 °F 9.6 °F 10.4 °F 59% 30.36 in 10.0 mi North 16.1 mph - N/A   Clear
9:35 AM 23.0 °F 9.6 °F 10.4 °F 59% 30.36 in 10.0 mi NNW 16.1 mph 23.0 mph N/A   Clear
9:55 AM 23.0 °F 8.7 °F 10.4 °F 59% 30.37 in 10.0 mi NNW 18.4 mph - N/A   Clear
10:15 AM 24.8 °F 11.1 °F 10.4 °F 54% 30.36 in 10.0 mi NW 18.4 mph - N/A   Clear
10:35 AM 24.8 °F 11.9 °F 8.6 °F 50% 30.37 in 10.0 mi NNW 16.1 mph 21.9 mph N/A   Clear
10:55 AM 24.8 °F 11.9 °F 10.4 °F 54% 30.37 in 10.0 mi NNW 16.1 mph - N/A   Clear
11:15 AM 26.6 °F 15.7 °F 10.4 °F 51% 30.37 in 10.0 mi North 12.7 mph 19.6 mph N/A   Clear
11:35 AM 28.4 °F 16.6 °F 10.4 °F 47% 30.38 in 10.0 mi North 16.1 mph - N/A   Clear
11:55 AM 28.4 °F 16.2 °F 10.4 °F 47% 30.39 in 10.0 mi NNW 17.3 mph 23.0 mph N/A   Clear
12:15 PM 28.4 °F 17.0 °F 10.4 °F 47% 30.39 in 10.0 mi NNW 15.0 mph 20.7 mph N/A   Clear
12:55 PM 28.4 °F 16.2 °F 10.4 °F 47% 30.39 in 10.0 mi NNW 17.3 mph 26.5 mph N/A   Clear
1:15 PM 30.2 °F 19.3 °F 10.4 °F 44% 30.39 in 10.0 mi NNW 15.0 mph 27.6 mph N/A   Clear
1:35 PM 30.2 °F 18.5 °F 10.4 °F 44% 30.39 in 10.0 mi North 17.3 mph 24.2 mph N/A   Clear
1:55 PM 32.0 °F 21.6 °F 12.2 °F 44% 30.38 in 10.0 mi North 15.0 mph 21.9 mph N/A   Clear
2:15 PM 32.0 °F 20.5 °F 12.2 °F 44% 30.38 in 10.0 mi North 18.4 mph - N/A   Clear
2:35 PM 30.2 °F 19.3 °F 12.2 °F 47% 30.38 in 10.0 mi NNW 15.0 mph 23.0 mph N/A   Clear
2:55 PM 32.0 °F 21.2 °F 12.2 °F 44% 30.39 in 10.0 mi North 16.1 mph 23.0 mph N/A   Clear
3:15 PM 30.2 °F 19.3 °F 12.2 °F 47% 30.38 in 10.0 mi NNW 15.0 mph 24.2 mph N/A   Clear
3:35 PM 32.0 °F 22.1 °F 12.2 °F 44% 30.38 in 10.0 mi North 13.8 mph 23.0 mph N/A   Clear
3:55 PM 30.2 °F 19.3 °F 12.2 °F 47% 30.39 in 10.0 mi North 15.0 mph 25.3 mph N/A   Clear
4:15 PM 32.0 °F 21.6 °F 14.0 °F 48% 30.39 in 10.0 mi North 15.0 mph 24.2 mph N/A   Clear
4:35 PM 30.2 °F 18.9 °F 14.0 °F 51% 30.39 in 10.0 mi North 16.1 mph - N/A   Clear
4:55 PM 30.2 °F 18.9 °F 14.0 °F 51% 30.39 in 10.0 mi North 16.1 mph 25.3 mph N/A   Clear
5:15 PM 30.2 °F 17.8 °F 12.2 °F 47% 30.39 in 10.0 mi North 19.6 mph - N/A   Clear
5:35 PM 28.4 °F 16.2 °F 12.2 °F 51% 30.39 in 10.0 mi North 17.3 mph - N/A   Clear
5:55 PM 28.4 °F 17.5 °F 12.2 °F 51% 30.39 in 10.0 mi North 13.8 mph 21.9 mph N/A   Clear
6:15 PM 28.4 °F 16.6 °F 12.2 °F 51% 30.39 in 10.0 mi North 16.1 mph 21.9 mph N/A   Clear
6:35 PM 26.6 °F 15.7 °F 14.0 °F 59% 30.39 in - North 12.7 mph - N/A   Clear
6:55 PM 26.6 °F 15.2 °F 12.2 °F 55% 30.40 in 10.0 mi North 13.8 mph 20.7 mph N/A   Clear
7:15 PM 26.6 °F 14.3 °F 12.2 °F 55% 30.41 in 10.0 mi North 16.1 mph 23.0 mph N/A   Scattered Clouds
7:35 PM 26.6 °F 14.7 °F 12.2 °F 55% 30.42 in 10.0 mi North 15.0 mph - N/A   Overcast
7:55 PM 26.6 °F 15.7 °F 12.2 °F 55% 30.43 in 10.0 mi NNW 12.7 mph 20.7 mph N/A   Overcast
8:15 PM 26.6 °F 14.3 °F 12.2 °F 55% 30.43 in 10.0 mi North 16.1 mph - N/A   Overcast
8:35 PM 24.8 °F 12.9 °F 12.2 °F 59% 30.43 in 10.0 mi NNW 13.8 mph 23.0 mph N/A   Overcast
8:55 PM 24.8 °F 12.4 °F 12.2 °F 59% 30.44 in 10.0 mi North 15.0 mph 20.7 mph N/A   Overcast
9:15 PM 24.8 °F 11.9 °F 12.2 °F 59% 30.44 in 10.0 mi North 16.1 mph - N/A   Overcast
9:35 PM 24.8 °F 12.4 °F 12.2 °F 59% 30.45 in 10.0 mi North 15.0 mph - N/A   Overcast
9:55 PM 24.8 °F 13.4 °F 12.2 °F 59% 30.45 in 10.0 mi North 12.7 mph - N/A   Overcast
10:15 PM 24.8 °F 13.4 °F 12.2 °F 59% 30.46 in 10.0 mi North 12.7 mph - N/A   Mostly Cloudy
10:35 PM 24.8 °F 12.9 °F 12.2 °F 59% 30.47 in 10.0 mi NNW 13.8 mph - N/A   Overcast
10:55 PM 24.8 °F 13.4 °F 12.2 °F 59% 30.47 in 10.0 mi North 12.7 mph - N/A   Overcast
11:15 PM 24.8 °F 14.0 °F 12.2 °F 59% 30.48 in 10.0 mi North 11.5 mph 18.4 mph N/A   Overcast
11:35 PM 24.8 °F 12.9 °F 12.2 °F 59% 30.49 in 10.0 mi North 13.8 mph 19.6 mph N/A   Overcast
11:55 PM 24.8 °F 11.9 °F 12.2 °F 59% 30.49 in 10.0 mi North 16.1 mph - N/A   Mostly Cloudy